This is the latest recevied weather packets stored in our database for station/object WL7CLI. If no packets are shown the sender has not sent any weather packets the latest 10 day(s).
| Time | Temp. | Humidity | Pressure | Rain* | Wind** | Luminosity | Snow |
|---|---|---|---|---|---|---|---|
| 1778060299 | 5.56° C | 57% | 1015.6 hPa | 0 mm | - | - | - |
| 1778060174 | 5.56° C | 57% | 1015.6 hPa | 0 mm | - | - | - |
| 1778059704 | 5.56° C | 57% | 1015.2 hPa | 0 mm | - | - | - |
| 1778059099 | 5.56° C | 57% | 1015.5 hPa | 0 mm | - | - | - |
| 1778058974 | 5.56° C | 56% | 1015.5 hPa | 0 mm | - | - | - |
| 1778057904 | 5.56° C | 58% | 1015 hPa | 0 mm | - | - | - |
| 1778057899 | 5.56° C | 58% | 1015.4 hPa | 0 mm | - | - | - |
| 1778057775 | 5.56° C | 58% | 1015.4 hPa | 0 mm | - | - | - |
| 1778056699 | 5° C | 60% | 1014.9 hPa | 0 mm | - | - | - |
| 1778056574 | 5° C | 60% | 1014.9 hPa | 0 mm | - | - | - |
| 1778056104 | 4.44° C | 61% | 1014.4 hPa | 0 mm | - | - | - |
| 1778055498 | 4.44° C | 63% | 1014.7 hPa | 0 mm | - | - | - |
| 1778055371 | 4.44° C | 63% | 1014.8 hPa | 0 mm | - | - | - |
| 1778054304 | 4.44° C | 63% | 1014.4 hPa | 0 mm | - | - | - |
| 1778054300 | 4.44° C | 62% | 1014.9 hPa | 0 mm | - | - | - |
| 1778054175 | 4.44° C | 62% | 1014.8 hPa | 0 mm | - | - | - |
| 1778053098 | 5° C | 60% | 1014.7 hPa | 0 mm | - | - | - |
| 1778052975 | 5° C | 59% | 1014.7 hPa | 0 mm | - | - | - |
| 1778052505 | 5° C | 60% | 1014.4 hPa | 0 mm | - | - | - |
| 1778051900 | 5° C | 60% | 1014.7 hPa | 0 mm | - | - | - |
| 1778051775 | 5° C | 58% | 1014.7 hPa | 0 mm | - | - | - |
| 1778050704 | 5.56° C | 56% | 1014.5 hPa | 0 mm | - | - | - |
| 1778050699 | 5.56° C | 56% | 1014.9 hPa | 0 mm | - | - | - |
| 1778050574 | 5.56° C | 56% | 1014.9 hPa | 0 mm | - | - | - |
| 1778049500 | 6.67° C | 53% | 1015 hPa | 0 mm | - | - | - |
* Rain latest hour (hover to see other rain measurements)
** Current wind speed in m/s (hover to see current wind gust speed)